星链-2388 (STARLINK-2388 )

导读

STARLINK-2388是美国SpaceX公司星链(Starlink)卫星互联网项目的一员,于2021年3月11日发射。星链计划旨在通过部署近地轨道卫星星座,为全球偏远地区提供高速低延迟宽带互联网服务,该卫星属于星链第一代卫星,运行在近地轨道,配备氪离子推进系统,可自主避碰,完成任务后会再入大气层销毁,目前正常服务于全球卫星互联网组网。

Basic Information
目录编号:
47807
目录名称:
STARLINK-2388
国际标识:
2021-018W
轨道中心:
EARTH
卫星名称:
星链-2388
卫星全名:
星链-2388 (STARLINK-2388 )
卫星状态:
在轨 (已飞行2003 天)
发射日期:
2021-03-11 UTC
国别 :
美国 (US)
星等 :
--
Orbit Information
数据来源 国际轨道数据
星历时间: 2026-09-04T12:43:49+0800
4小时前
查看轨道信息
半长轴: 6848.863km
偏心率: 0.0001389
轨道倾角: 53.160°
近地点辐角 81.464°
升交点赤经 105.984°
平近点角 278.652°
近地点: 469.774km
远地点: 471.678km
周期: 94.013分钟
每日圈数: 15.317048
Detailed Information
固有亮度:
5
最大亮度:
2.5
卫星平台:
Starlink V1.0
覆盖范围:
全球
运营商:
太空探索技术公司
运营商所在国:
美国
制造商(研发单位):
太空探索技术公司
制造商所在国:
美国
使用方式:
暂无
Satellite Introduction
星链(Starlink)计划是由太空探索技术公司(SpaceX)提出的一个巨型低轨卫星互联网星座项目,计划在2019年至2024年间在太空搭建由约1.2万颗卫星组成的“星链”网络,其中1584颗将部署在地球上空550千米处的近地轨道,并从2020年开始工作。该卫星仍在工作。
2D Orbit Map
3D Orbit Map
Orbit Altitude Analysis Chart
Orbit Inclination Analysis Chart
Orbit Comprehensive Analysis Chart
View Comprehensive Chart
Conjunction Data List
Event ID Objects TCA Miss Dist (km) Collision Risk Probability Collision Risk Index (CRI) Action
CDM_260904-122204-780706-885421
2026-09-04T
12:22:42+0000
2.456 km
极远距离
1.790061E-6 低风险 0.4
CDM_260905-172704-780706-948921
2026-09-05T
17:27:12+0000
2.828 km
极远距离
1.440383E-6 低风险 0.38
CDM_260904-142004-780706-553522
2026-09-04T
14:20:43+0000
2.807 km
极远距离
1.432766E-6 低风险 0.38
CDM_260904-233704-780706-416822
2026-09-04T
23:37:52+0000
2.890 km
极远距离
1.39694E-6 低风险 0.38
CDM_260904-125903-130504-780724
2026-09-04T
12:59:51+0000
2.877 km
极远距离
1.309671E-6 低风险 0.37